Vertical_Velocity
3 3 3 -1 -3 -4 -2 -3 -2 -0 -2 -1 1 -1 0 0 -1 -0 1 5 2 -0 1 -1 -0 -6 -3 -3 -5 -5 3 -1
0 1 2 2 -1 -2 -4 -2 1 -2 -3 -2 -5 -3 -4 -6 -2 1 -2 2 1 1 -1 -3 -4 -4 -1 -1 1 -0 -2 1
2 3 6 4 -0 -2 -1 2 -0 -2 -1 -2 -4 -4 -3 -6 -2 -1 1 2 -2 -2 1 2 3 1 -4 -2 -1 -0 -4 -3
2 3 5 6 1 -1 1 -0 -1 0 -0 -2 -2 -1 -2 -0 -0 2 -5 -5 -4 -3 -2 -3 -3 -2 -2 -1 -3 1 1 -1
3 4 5 6 2 2 -2 -1 1 1 -3 -3 -3 -4 -0 -3 -5 -3 -1 -2 -2 1 -3 -1 -3 -2 -2 -3 -2 -3 0 -1
2 4 6 3 -1 -0 0 -0 1 -2 -3 1 1 2 1 -0 -1 -2 3 2 1 -1 -1 -3 -2 -5 -3 -1 -0 -3 -2 0
4 3 1 -1 2 2 0 2 -1 -2 1 1 1 -1 -1 -2 -0 -1 -3 -3 -2 -2 -3 -2 -2 -1 -1 -0 -0 -3 -0 -2
2 4 1 2 3 -0 -0 -2 -0 1 2 -0 -2 0 -0 1 -0 0 -2 -0 -3 -1 -1 1 -1 -1 -1 -1 -2 -1 -1 -1
1 0 -0 -1 -3 -0 -2 4 -0 3 -0 -1 -1 2 2 -2 1 0 0 -0 -1 1 -1 0 -2 -1 0 -2 -3 -3 -1 -1
-4 -4 -1 -2 1 -0 9 -2 -1 -2 -3 -2 -1 1 -1 -1 -1 -0 -1 -2 -2 -1 1 -1 -1 -2 0 -2 -3 -2 -1 -2
-4 -3 -0 -1 8 3 -0 -3 1 1 1 -0 0 -0 -0 -0 -2 -1 0 -2 0 -1 -1 -2 -2 -1 -1 -1 -2 -4 -3 -2
-1 -0 5 4 -3 -2 -2 -2 1 3 1 -1 -1 -1 -1 -2 1 0 0 -2 -2 -0 -3 -2 -1 -1 -3 -1 -3 -3 -2 -2
8 -1 -0 2 -2 1 1 -1 0 3 0 -2 -2 -1 -0 1 1 1 -1 -1 -2 -1 -2 -1 -0 -4 -4 -0 -3 -2 -2 -2
1 0 0 4 -2 -1 -1 2 0 2 0 -2 -0 2 -0 0 0 0 -2 -3 -2 -3 -1 1 -2 -1 -2 -3 -2 -2 -1 -1
1 3 5 1 0 -1 -0 1 6 -2 -3 1 2 1 1 -1 -0 -1 -1 -1 -4 -1 -2 -1 -3 -1 -3 -3 -3 -2 -1 -0
-2 -1 -2 1 1 1 -3 4 1 1 0 1 2 1 0 -1 2 -1 -1 -4 -4 0 -1 -2 -4 -3 -1 1 -0 0 -1 -1
0 0 2 2 1 0 1 7 1 3 -1 -2 -0 1 1 0 3 -1 -2 -3 -2 -1 -2 -3 -1 -3 -2 -2 1 -2 -1 0
1 -2 -0 4 0 7 7 5 4 -2 -2 -0 1 1 1 -0 -2 1 -4 -2 -1 -0 -1 -3 -3 -3 -2 0 -0 -1 -1 -0
6 4 5 1 4 8 5 5 0 -1 -1 2 0 1 0 0 -1 -2 -1 -1 0 -0 -1 -3 -3 -3 -1 0 -1 -2 -0 -1
Height
5826 5821 5814 5807 5801 5795 5789 5782 5777 5772 5765 5758 5749 5740 5732 5723 5714 5703 5692 5679 5666 5655 5645 5635 5624 5613 5601 5589 5576 5565 5556 5544
5820 5814 5808 5801 5795 5789 5782 5776 5770 5764 5757 5747 5739 5731 5722 5712 5702 5691 5679 5667 5655 5644 5633 5622 5610 5599 5587 5574 5562 5551 5540 5529
5813 5808 5802 5796 5789 5781 5775 5769 5763 5756 5746 5737 5728 5719 5709 5699 5689 5678 5667 5655 5643 5633 5623 5610 5598 5585 5572 5561 5549 5537 5523 5512
5807 5802 5796 5790 5782 5775 5768 5762 5755 5746 5736 5727 5719 5709 5698 5688 5677 5665 5653 5643 5632 5621 5611 5598 5585 5571 5560 5549 5536 5523 5508 5495
5800 5795 5790 5783 5775 5767 5761 5755 5747 5736 5727 5718 5708 5698 5687 5675 5665 5654 5644 5633 5621 5610 5598 5586 5572 5560 5549 5535 5521 5507 5495 5484
5793 5789 5783 5775 5768 5761 5754 5746 5737 5727 5719 5709 5699 5689 5677 5665 5655 5645 5635 5623 5612 5600 5587 5574 5561 5549 5536 5522 5507 5493 5483 5474
5786 5781 5776 5768 5762 5754 5746 5737 5728 5720 5710 5700 5690 5679 5668 5657 5646 5636 5625 5614 5603 5589 5576 5564 5550 5538 5524 5509 5495 5484 5475 5467
5780 5775 5768 5761 5753 5746 5738 5729 5721 5712 5702 5691 5681 5671 5660 5649 5639 5628 5617 5604 5592 5579 5568 5554 5540 5528 5512 5498 5487 5477 5468 5459
5772 5767 5760 5753 5745 5738 5729 5722 5714 5705 5695 5684 5673 5663 5652 5641 5631 5619 5608 5596 5583 5573 5559 5545 5532 5518 5502 5490 5480 5471 5461 5451
5764 5757 5750 5744 5738 5729 5723 5715 5706 5696 5687 5676 5666 5655 5644 5632 5622 5611 5599 5587 5576 5564 5551 5537 5523 5508 5495 5485 5475 5463 5453 5444
5754 5750 5744 5738 5730 5722 5715 5707 5697 5687 5678 5668 5658 5646 5635 5625 5614 5603 5591 5580 5568 5556 5543 5529 5515 5501 5489 5480 5468 5456 5448 5440
5749 5743 5737 5730 5722 5715 5708 5699 5689 5679 5670 5660 5650 5638 5628 5617 5607 5596 5583 5572 5561 5550 5537 5523 5508 5496 5484 5474 5463 5453 5445 5437
5740 5735 5728 5721 5714 5707 5699 5690 5681 5672 5662 5653 5642 5631 5621 5610 5600 5588 5576 5567 5556 5545 5532 5517 5503 5491 5480 5470 5459 5450 5442 5435
5733 5726 5720 5713 5706 5698 5690 5682 5673 5664 5655 5645 5635 5624 5614 5604 5594 5583 5572 5563 5552 5540 5527 5513 5501 5489 5477 5467 5457 5448 5441 5433
5724 5719 5711 5704 5698 5690 5682 5674 5666 5658 5649 5639 5628 5618 5608 5598 5589 5579 5568 5558 5548 5536 5523 5509 5498 5486 5475 5465 5456 5447 5439 5431
5715 5710 5703 5697 5690 5682 5675 5667 5659 5651 5642 5632 5622 5612 5603 5593 5583 5574 5565 5555 5544 5531 5519 5507 5495 5484 5473 5465 5455 5446 5437 5429
5708 5703 5696 5688 5682 5675 5668 5660 5652 5643 5634 5625 5616 5607 5597 5587 5580 5571 5562 5552 5541 5528 5517 5505 5494 5482 5473 5464 5455 5445 5436 5427
5701 5695 5690 5683 5675 5668 5662 5653 5643 5635 5627 5619 5610 5602 5592 5584 5576 5568 5559 5549 5539 5527 5515 5504 5493 5482 5472 5463 5453 5444 5435 5425
5695 5689 5683 5676 5670 5663 5655 5646 5636 5628 5621 5612 5604 5597 5588 5581 5574 5565 5557 5547 5536 5525 5513 5503 5493 5482 5471 5462 5452 5442 5432 5422